Hourly Data Report for September 19, 2017

All times are specified in Local Standard Time (LST). Add 1 hour to adjust for Daylight Saving Time where and when it is observed.

IQALUIT CLIMATE
NUNAVUT

63°44'50.000" N
68°32'40.000" W
33.50 m
2402592
71321
XFB

Download Data

Hourly Data (September 2017)
Hourly Data Report for September 19, 2017
Temp Definition
°C
Dew Point Temp Definition
°C
Rel Hum Definition
%
Wind Dir Definition
10's deg

Wind Spd Definition
km/h
Visibility Definition
km
Stn Press Definition
kPa
Hmdx Definition


Wind Chill Definition


Weather Definition


TIME
00:00 0.7 -0.6 91 3 3   101.52     LegendNANA
01:00 -0.1 -1.6 90   0   101.49     LegendNANA
02:00 0.7 -0.5 92 8 2   101.43     LegendNANA
03:00 1.1 -0.6 88 18 4   101.41     LegendNANA
04:00 -0.2 -1.2 93 2 2   101.37   -1 LegendNANA
05:00 0.2 -1.1 91 17 3   101.35     LegendNANA
06:00 0.0 -1.1 93 8 3   101.31   -1 LegendNANA
07:00 1.8 -0.2 87 15 4   101.29     LegendNANA
08:00 2.5 0.3 86 15 7   101.27     LegendNANA
09:00 3.4 0.5 81 14 3   101.24     LegendNANA
10:00 3.3 1.0 85 14 8   101.20     LegendNANA
11:00
12:00 3.3 0.6 83 15 16   101.12     LegendNANA
13:00 2.9 -0.2 80 16 15   101.10     LegendNANA
14:00 3.1 0.0 80 14 12   101.05     LegendNANA
15:00 2.8 0.7 86 15 15   101.03     LegendNANA
16:00 2.2 0.6 89 15 14   101.02     LegendNANA
17:00 2.4 0.4 87 18 13   101.01     LegendNANA
18:00 2.0 0.4 89 13 7   101.01     LegendNANA
19:00 2.1 0.5 89 12 7   101.01     LegendNANA
20:00 2.6 0.3 85 9 8   101.00     LegendNANA
21:00 2.4 0.6 88 12 6   101.00     LegendNANA
22:00 2.0 0.4 89 18 6   101.02     LegendNANA
23:00 1.4 0.3 92   0   101.02     LegendNANA

Notes on Data Quality.

Legend

  • E = Estimated
  • M = Missing
  • NA = Not Available
  • ‡ = Partner data that is not subject to review by the National Climate Archives
Date modified: